Regional Weather Roundup
Issued by NWS

Home | Current Version | Previous Version | Graphics & Text | Print | Product List | Glossary On
Versions: 1 2 3 4 5 6 7 8 9 10 11 12 13 14 15 16 17 18 19 20 21 22 23 24 25 26 27 28 29 30 31 32 33 34 35 36 37 38 39 40 41 42 43 44 45 46 47 48 49 50
000
ASUS43 KIND 270859
RWRIN

WEATHER ROUNDUP FOR INDIANA
NATIONAL WEATHER SERVICE INDIANAPOLIS IN
500 AM EDT SAT MAY 27 2017

NOTE: "FAIR" INDICATES FEW OR NO CLOUDS BELOW 12,000 FEET WITH NO
SIGNIFICANT WEATHER AND/OR OBSTRUCTIONS TO VISIBILITY.

* - STATION DOES NOT REPORT WEATHER SUCH AS PRECIPITATION OR FOG.

+ - STATION NOT QUALITY CONTROLLED BY THE NATIONAL WEATHER SERVICE.
    USE DATA WITH CAUTION...ESPECIALLY DEWPOINT AND RELATIVE
    HUMIDITY OBSERVATIONS.

INZ001>003-010>013-019-020-271000-
NORTHWEST INDIANA

CITY           SKY/WX    TMP DP  RH WIND       PRES   REMARKS
MICHIGAN CITY+ CLOUDY    57  57 100 N5        29.86S
MONTICELLO +   CLEAR     61  59  94 N6        29.81S
RENSSELAER +   CLOUDY    61  59  94 N5        29.84R FOG

$$

LMZ046-743>745-271000-
SOUTHERN LAKE MICHIGAN

STATION/POSITION TIME  TEMP    WIND        PRES    WAVE
                       AIR SEA DIR/SP/G            HT
                 (UTC) (F)     (DEG/KT/KT) (MB)    (FT)
BURNS HARBOR     0830   56      50/  8/  9 1011.5S
MICHIGAN CITY    0830   55      30/ 10/ 10   N/A
5NW MICH CITY    0850   53 53   40/ 10/ 12   N/A     1

$$

INZ004-005-014>016-021>024-271000-
NORTH CENTRAL INDIANA

CITY           SKY/WX    TMP DP  RH WIND       PRES   REMARKS
GOSHEN         CLOUDY    59  55  87 N7        29.84S
SOUTH BEND     CLOUDY    57  57 100 CALM      29.87R

$$

INZ006>009-017-018-025>027-271000-
NORTHEAST INDIANA

CITY           SKY/WX    TMP DP  RH WIND       PRES   REMARKS
FORT WAYNE     DRIZZLE   61  59  93 E6        29.83S FOG
KENDALLVILLE + CLOUDY    58  58 100 E5        29.85S

$$

INZ028-029-035-036-043>045-051>053-271000-
WEST CENTRAL INDIANA

CITY           SKY/WX    TMP DP  RH WIND       PRES   REMARKS
CRAWFORDSVL +  CLOUDY   -35 -35 100 W7        29.83R WCI -55
GREENCASTLE +  CLOUDY    68  64  88 CALM      29.84R
LAFAYETTE      CLOUDY    63  63 100 NW5       29.81R FOG
TERRE HAUTE    CLOUDY    69  65  86 W7        29.83S

$$

INZ030>032-037>040-046>048-054>057-064-065-271000-
CENTRAL INDIANA

CITY           SKY/WX    TMP DP  RH WIND       PRES   REMARKS
GREENWOOD *+   CLOUDY    70  64  83 W5        29.83S
INDIANAPOLIS   CLOUDY    68  66  93 W9        29.82R
-EAGLE CREEK   CLOUDY    69  65  86 SW5       29.81S
KOKOMO +       CLOUDY    65  64  97 CALM      29.81S FOG
SHELBYVILLE    CLOUDY    71  64  78 SW8       29.82R

$$

INZ033-034-041-042-049-050-058-059-271000-
EAST CENTRAL INDIANA

CITY           SKY/WX    TMP DP  RH WIND       PRES   REMARKS
MUNCIE         CLOUDY    66  64  93 CALM      29.81S
RICHMOND +     CLOUDY    64  63  94 SW5       29.84S

$$

INZ060-061-067>069-081>083-085>088-271000-
SOUTHWEST INDIANA

CITY           SKY/WX    TMP DP  RH WIND       PRES   REMARKS
EVANSVILLE     MOCLDY    70  67  90 SW6       29.85S
HUNTINGBURG *+ MOCLDY    68  66  93 CALM      29.85F

$$

INZ062-063-066-070>080-084-089>092-271000-
SOUTH CENTRAL AND SOUTHEAST INDIANA

CITY           SKY/WX    TMP DP  RH WIND       PRES   REMARKS
BLOOMINGTON    CLOUDY    70  65  84 SW6       29.84R
MADISON *+     CLOUDY    70  64  83 SW5       29.87R
SEYMOUR +      CLOUDY    72  66  83 SW8       29.83S

$$





USA.gov is the U.S. government's official web portal to all federal, state and local government web resources and services.